Retour au catalogue

STARLINK-35361

ActifCommunicationsSSO
NORAD 65667·PAYLOAD·🇺🇸 United States

Lancé Sep 19, 2025 depuis Vandenberg Space Force Base

Loading…

Prochains Passages (prochaines 24 heures)

TLE

FraisSource: CelesTrak SupGP

Époque: Sep 14, 2026, 15:17 UTC

1 65667C 25211R   26257.63729167 -.00046807  00000+0 -14530-2 0  2572
2 65667  97.2838 297.8791 0001327  99.1885 125.8580 15.33463819    18

Suivez STARLINK-35361 en temps réel avec AllMySat

Download on the App Store